This is the latest recevied weather packets stored in our database for station/object K1RFS. If no packets are shown the sender has not sent any weather packets the latest 10 day(s).
| Time | Temp. | Humidity | Pressure | Rain* | Wind** | Luminosity | Snow |
|---|---|---|---|---|---|---|---|
| 1787696797 | 31.67° C | 30% | 1007.9 hPa | 0 mm | - | 97 W/m² | - |
| 1787696494 | 31.11° C | 31% | 1007.8 hPa | 0 mm | - | 78 W/m² | - |
| 1787696189 | 31.67° C | 29% | 1007.7 hPa | 0 mm | - | 75 W/m² | - |
| 1787695887 | 31.11° C | 31% | 1007.9 hPa | 0 mm | - | 85 W/m² | - |
| 1787695583 | 31.11° C | 31% | 1007.8 hPa | 0 mm | - | 90 W/m² | - |
| 1787695280 | 31.11° C | 30% | 1007.7 hPa | 0 mm | - | 81 W/m² | - |
| 1787694979 | 32.22° C | 29% | 1007.7 hPa | 0 mm | - | 86 W/m² | - |
| 1787694678 | 33.33° C | 28% | 1007.8 hPa | 0 mm | - | 138 W/m² | - |
| 1787694374 | 32.78° C | 25% | 1007.9 hPa | 0 mm | - | 585 W/m² | - |
| 1787694069 | 32.22° C | 25% | 1007.8 hPa | 0 mm | - | 154 W/m² | - |
| 1787693765 | 32.78° C | 25% | 1008.1 hPa | 0 mm | - | 135 W/m² | - |
| 1787693461 | 32.78° C | 25% | 1007.9 hPa | 0 mm | - | 612 W/m² | - |
| 1787693157 | 32.22° C | 26% | 1008 hPa | 0 mm | - | 149 W/m² | - |
| 1787692853 | 32.78° C | 25% | 1008 hPa | 0 mm | - | 146 W/m² | - |
| 1787692553 | 34.44° C | 25% | 1008.1 hPa | 0 mm | - | 122 W/m² | - |
| 1787692252 | 36.11° C | 23% | 1008.1 hPa | 0 mm | - | 110 W/m² | - |
| 1787691947 | 36.11° C | 23% | 1008.2 hPa | 0 mm | - | 593 W/m² | - |
| 1787691646 | 35° C | 23% | 1008.1 hPa | 0 mm | - | 615 W/m² | - |
| 1787691344 | 35.56° C | 23% | 1008.1 hPa | 0 mm | - | 364 W/m² | - |
| 1787691039 | 35° C | 22% | 1008 hPa | 0 mm | - | 619 W/m² | - |
| 1787690734 | 35° C | 24% | 1008.2 hPa | 0 mm | - | 681 W/m² | - |
| 1787690429 | 33.33° C | 24% | 1008.4 hPa | 0 mm | - | 671 W/m² | - |
| 1787690125 | 32.78° C | 24% | 1008.4 hPa | 0 mm | - | 294 W/m² | - |
| 1787689821 | 33.33° C | 25% | 1008.1 hPa | 0 mm | - | 183 W/m² | - |
| 1787689517 | 34.44° C | 24% | 1008.5 hPa | 0 mm | - | 160 W/m² | - |
* Rain latest hour (hover to see other rain measurements)
** Current wind speed in m/s (hover to see current wind gust speed)